[[{"header":{"parameterUnit":"m.s-1","parameterCategory":1,"la1":30.2991,"la2":30.254,"lo1":-89.0895,"lo2":-89.0444,"dy":0.0017,"dx":0.0017,"nx":28,"ny":28,"refTime":"2023-10-03T21:00:00:Z","depth":0,"parameterNumber":2,"parameterNumberName":"U-component_of_WINDS"},"data":[0,0,0,0,0,0,0,0,0,0,0,0,0,0,0,0,0,0,0,0,0,0,0,0,0,0,0,0,0,0,0,0,0,0,0,0,0,0,0,0,0,0,0,0,0,0,0,0,0,0,0,0,0,0,0,0,0,0,-5.0068,-5.0068,0,-5.0114,-5.0114,-5.0115,-5.0024,-5.0021,-5.0018,-5.0015,-5.0059,-5.0063,-5.0067,0,0,0,0,0,0,0,0,0,0,0,0,0,-4.99,-4.9904,-5.0068,-5.0068,-5.0069,-5.0114,-5.0114,-5.0115,-5.0024,-5.0021,-5.0017,-5.0014,-5.0058,-5.0063,-5.0068,0,0,0,0,0,0,0,0,0,0,0,0,0,-4.9962,-4.9905,-5.0068,-5.0029,-5.0026,-5.0113,-5.0114,-5.0115,-5.0025,-5.0021,-5.0016,-5.0012,-5.0057,-5.0062,-5.0068,-5.0194,0,0,-5.0086,-5.0089,0,0,0,0,0,0,0,0,-4.9959,-4.9968,-5.0034,-5.0032,-5.0029,-5.0058,-5.0071,-5.0141,-5.0026,-5.0025,-5.0015,-5.001,-5.0063,-5.0068,-5.0086,-5.0196,-5.0198,-5.0087,-5.0091,-5.0093,-5.0095,0,0,0,0,0,0,0,-4.9955,-4.9966,-5.0086,-5.0035,-5.0032,-5.0009,-5.0013,-5.0084,-5.0068,-5.0025,-5.0019,-5.0026,-5.006,-5.0081,-5.0086,-5.0199,-5.0087,-5.0092,-5.0096,-5.0098,-5.0414,-5.0418,0,0,0,0,0,0,-4.9955,-4.9963,-5.0084,-5.0087,-4.9982,-5.0016,-5.002,-5.0053,-5.0067,-5.0065,-5.0029,-5.0021,-5.0073,-5.008,-5.0088,-5.0234,-5.0093,-5.0099,-5.0102,-5.0409,-5.0415,-5.042,0,0,0,0,0,0,-4.9952,-4.9967,-5.0082,-5.0023,-5.0036,-5.0023,-5.0062,-5.0057,-5.0077,-5.0071,-5.0067,-5.0053,-5.0069,-5.0079,-5.0168,-5.0234,-5.0101,-5.0107,-5.0403,-5.0411,-5.0417,-5.0529,0,0,0,0,0,0,-4.9948,-4.9967,-5.0014,-5.0025,-5.004,-5.0163,-5.0066,-5.0061,-5.0088,-5.0077,-5.0092,-5.009,-5.0067,-5.016,-5.0174,-5.024,-5.0111,-5.0397,-5.0406,-5.0415,-5.052,-5.0539,-5.0557,0,0,0,0,0,-4.9942,-5.0044,-5.0017,-5.0033,-5.01,-5.0167,-5.0175,-5.0147,-5.0093,-5.0141,-5.0137,-5.0089,-5.0226,-5.017,-5.0185,-5.0254,-5.0393,-5.0404,-5.0414,-5.0511,-5.0536,-5.0556,0,0,0,0,0,0,-5.004,-5.0045,-5.0015,-5.0124,-5.0146,-5.0152,-5.021,-5.0174,-5.0211,-5.02,-5.0163,-5.0167,-5.0263,-5.0268,-5.0205,-5.0376,-5.03,-5.0314,-5.0369,-5.0392,-5.041,-5.0405,-5.0116,0,0,0,0,0,-5.0075,-5.013,-5.0131,-5.0226,-5.0239,-5.0224,-5.0252,-5.0229,-5.0249,-5.0258,-5.026,-5.0282,-5.033,-5.0362,-5.0405,-5.0522,-5.0522,-5.0576,-5.0595,-5.061,-5.0622,-5.0682,-5.0705,-5.0455,-5.0455,-5.0455,0,0,-5.0146,-5.0155,-5.0192,-5.0246,-5.026,-5.0317,-5.0232,-5.0296,-5.0337,-5.0267,-5.0351,-5.0354,-5.0376,-5.0479,-5.0524,-5.0486,-5.0692,-5.0624,-5.0636,-5.0639,-5.0696,-5.0719,-5.074,-5.0463,-5.0461,-5.046,0,0,-5.0303,-5.0318,-5.0398,-5.0414,-5.0438,-5.0427,-5.0447,-5.0459,-5.0458,-5.0542,-5.0491,-5.054,-5.0623,-5.064,-5.066,-5.0827,-5.0784,-5.0843,-5.0937,-5.0997,-5.1016,-5.1033,-5.109,-5.1111,-5.0855,-5.0855,-5.0856,0,-5.0388,-5.0472,-5.0443,-5.0511,-5.0535,-5.0477,-5.0558,-5.0575,-5.0612,-5.063,-5.0587,-5.069,-5.0701,-5.0806,-5.0847,-5.0866,-5.0886,-5.0838,-5.1016,-5.1033,-5.1049,-5.1102,-5.1124,-5.0862,-5.0861,-5.0861,-5.086,0,-5.0574,-5.0634,-5.0696,-5.0733,-5.0765,-5.0839,-5.082,-5.0857,-5.0832,-5.0826,-5.0911,-5.0923,-5.0967,-5.0991,-5.0967,-5.1093,-5.1069,-5.1022,-5.0944,-5.108,-5.1129,-5.115,-5.0872,-5.0869,-5.0867,-5.0866,0,0,-5.0791,-5.0813,-5.0836,-5.0852,-5.0874,-5.0919,-5.0991,-5.1035,-5.1066,-5.1094,-5.1151,-5.1224,-5.1181,-5.1204,-5.1182,-5.1234,-5.1363,-5.1181,-5.1181,-5.1211,-5.15,-5.1532,-5.1557,-5.1337,-5.1341,-5.1344,-5.1497,0,-5.0945,-5.1068,-5.1044,-5.1164,-5.1217,-5.1164,-5.1226,-5.1246,-5.1243,-5.1288,-5.1285,-5.1336,-5.1277,-5.129,-5.134,-5.1337,-5.142,-5.1326,-5.1387,-5.139,-5.1379,-5.1583,-5.1617,-5.1761,-5.1517,-5.152,-5.1523,0,-5.114,-5.1176,-5.1301,-5.1314,-5.1336,-5.1392,-5.143,-5.1475,-5.1497,-5.1491,-5.1518,-5.1486,-5.1556,-5.1481,-5.1576,-5.1513,-5.1537,-5.154,-5.1545,-5.1546,-5.1461,-5.1587,-5.1807,-5.1827,-5.1553,-5.1551,-5.1549,0,-5.1282,-5.1362,-5.1446,-5.1462,-5.1481,-5.1521,-5.1531,-5.1549,-5.1577,-5.1612,-5.1629,-5.1672,-5.1694,-5.1727,-5.1707,-5.1655,-5.1806,-5.1729,-5.18,-5.1801,-5.1831,-5.1828,-5.2055,-5.1854,-5.1853,-5.1853,-5.1853,0,-5.1454,-5.1531,-5.151,-5.1561,-5.1647,-5.162,-5.1705,-5.1709,-5.1726,-5.1776,-5.1735,-5.1783,-5.1756,-5.1802,-5.1788,-5.1868,-5.1879,-5.1875,-5.1869,-5.1876,-5.1877,-5.1889,-5.1877,-5.1859,-5.1857,-5.1856,-5.1855,0,-5.1624,-5.1614,-5.1701,-5.1713,-5.1718,-5.178,-5.179,-5.1838,-5.1833,-5.1898,-5.1912,-5.1903,-5.1956,-5.1941,-5.1998,-5.1988,-5.2088,-5.2072,-5.2081,-5.2075,-5.2146,-5.2139,-5.2385,-5.2415,-5.2198,-5.22,-5.2202,0,-5.1732,-5.1791,-5.181,-5.1841,-5.1854,-5.1906,-5.1934,-5.1911,-5.1943,-5.1973,-5.2017,-5.2067,-5.2104,-5.2191,-5.2189,-5.2233,-5.2215,-5.2298,-5.222,-5.2226,-5.2212,-5.2207,-5.2212,-5.2312,-5.2315,-5.2317,-5.2319,0,-5.1925,-5.1917,-5.196,-5.2003,-5.2038,-5.207,-5.2098,-5.2126,-5.2105,-5.2143,-5.2197,-5.2226,-5.2285,-5.2333,-5.2373,-5.2383,-5.2347,-5.2344,-5.2362,-5.2368,-5.2369,-5.2366,-5.2119,-5.2337,-5.2335,-5.2334,-5.2333,-5.2332,-5.2065,-5.2114,-5.2135,-5.2185,-5.2204,-5.2231,-5.2276,-5.2278,-5.2322,-5.2368,-5.2353,-5.2414,-5.2435,-5.2485,-5.25,-5.2547,-5.2515,-5.2542,-5.2548,-5.2554,-5.2562,-5.2365,-5.2555,-5.2554,-5.2554,-5.2553,-5.2553,0,-5.2253,-5.2264,-5.231,-5.2351,-5.239,-5.2356,-5.2385,-5.242,-5.2474,-5.2497,-5.2536,-5.2597,-5.2645,-5.2649,-5.2693,-5.273,-5.2714,-5.2742,-5.2737,-5.2739,-5.2589,-5.2567,-5.2754,-5.2754,-5.2753,-5.2753,-5.2753,-5.2753,-5.2354,-5.2435,-5.243,-5.252,-5.253,-5.259,-5.2609,-5.2634,-5.2652,-5.2723,-5.2763,-5.2765,-5.2781,-5.2826,-5.2868,-5.2868,-5.2885,-5.2918,-5.2911,-5.277,-5.275,-5.2731,-5.271,-5.2923,-5.2923,-5.3057,-5.3058,-5.3059]},{"header":{"parameterUnit":"m.s-1","parameterCategory":1,"la1":30.2991,"la2":30.254,"lo1":-89.0895,"lo2":-89.0444,"dy":0.0017,"dx":0.0017,"nx":28,"ny":28,"refTime":"2023-10-03T21:00:00:Z","depth":0,"parameterNumber":3,"parameterNumberName":"V-component_of_WINDS"},"data":[0,0,0,0,0,0,0,0,0,0,0,0,0,0,0,0,0,0,0,0,0,0,0,0,0,0,0,0,0,0,0,0,0,0,0,0,0,0,0,0,0,0,0,0,0,0,0,0,0,0,0,0,0,0,0,0,0,0,3.6251,3.6251,0,3.6201,3.6201,3.62,3.6097,3.6095,3.6093,3.6091,3.6042,3.6042,3.6043,0,0,0,0,0,0,0,0,0,0,0,0,0,3.6261,3.6262,3.6251,3.6251,3.625,3.6201,3.6201,3.62,3.6097,3.6095,3.6092,3.609,3.6042,3.6042,3.6043,0,0,0,0,0,0,0,0,0,0,0,0,0,3.6239,3.6262,3.6251,3.6193,3.6187,3.6201,3.6201,3.62,3.6098,3.6095,3.6092,3.6089,3.6041,3.6042,3.6043,3.6111,0,0,3.6046,3.6046,0,0,0,0,0,0,0,0,3.624,3.6239,3.6202,3.6197,3.6191,3.6152,3.6186,3.617,3.6099,3.6132,3.6091,3.6087,3.6081,3.6079,3.6076,3.6109,3.6107,3.6046,3.6047,3.6047,3.6047,0,0,0,0,0,0,0,3.6242,3.624,3.6231,3.6202,3.6195,3.617,3.6164,3.6183,3.6125,3.6129,3.6121,3.6116,3.6077,3.6075,3.6074,3.6106,3.6046,3.6047,3.6048,3.6048,3.6192,3.6195,0,0,0,0,0,0,3.6252,3.6242,3.6233,3.623,3.6208,3.6173,3.6165,3.6168,3.6124,3.6114,3.6119,3.6112,3.6075,3.6073,3.6072,3.6147,3.6047,3.6048,3.6049,3.6189,3.6193,3.6196,0,0,0,0,0,0,3.6252,3.6252,3.6235,3.6234,3.623,3.6176,3.6179,3.6168,3.6166,3.6117,3.6106,3.6127,3.6073,3.6071,3.6102,3.6144,3.6048,3.6049,3.6185,3.619,3.6194,3.63,0,0,0,0,0,0,3.6253,3.6253,3.6277,3.6235,3.623,3.6265,3.6182,3.6169,3.6168,3.6158,3.6122,3.6113,3.607,3.6101,3.6103,3.6144,3.605,3.6181,3.6187,3.6193,3.6292,3.6308,3.6321,0,0,0,0,0,3.6254,3.6309,3.6279,3.6278,3.6259,3.6268,3.6265,3.6214,3.6172,3.6196,3.6165,3.6114,3.6141,3.6105,3.6106,3.6148,3.6178,3.6185,3.6192,3.6286,3.6305,3.6321,0,0,0,0,0,0,3.6357,3.6302,3.6268,3.6311,3.6295,3.625,3.6279,3.6236,3.6231,3.6222,3.616,3.6153,3.6192,3.6174,3.6136,3.6212,3.6151,3.6159,3.6222,3.6239,3.6253,3.6256,3.6051,0,0,0,0,0,3.6385,3.6396,3.6348,3.6391,3.6384,3.6334,3.6335,3.6298,3.6278,3.6271,3.6242,3.6226,3.623,3.6234,3.6236,3.6291,3.6281,3.632,3.6335,3.6347,3.6353,3.6381,3.6397,3.622,3.622,3.622,0,0,3.6443,3.6414,3.6424,3.6411,3.6393,3.6406,3.6328,3.6345,3.6354,3.6274,3.63,3.6279,3.6257,3.63,3.6318,3.6286,3.6401,3.6356,3.6366,3.6366,3.639,3.6407,3.6422,3.6225,3.6224,3.6224,0,0,3.6553,3.6534,3.6566,3.6551,3.6526,3.6492,3.6501,3.6463,3.6445,3.6472,3.6412,3.6423,3.6432,3.6418,3.6413,3.6522,3.6475,3.6525,3.6598,3.6625,3.6639,3.6651,3.6689,3.6703,3.6532,3.6532,3.6532,0,3.6628,3.6643,3.6589,3.6609,3.6605,3.6534,3.6567,3.6556,3.6533,3.6532,3.6497,3.6507,3.6488,3.6526,3.6553,3.6552,3.6559,3.6526,3.6642,3.6653,3.6664,3.6698,3.6713,3.6538,3.6538,3.6537,3.6536,0,3.6736,3.6748,3.6778,3.6757,3.6757,3.6784,3.6735,3.6742,3.6705,3.6676,3.6704,3.6679,3.6673,3.6681,3.6646,3.6715,3.6696,3.6653,3.6589,3.6687,3.6719,3.6732,3.6547,3.6545,3.6543,3.6541,0,0,3.6907,3.6857,3.6869,3.6858,3.6827,3.6835,3.6861,3.6855,3.6861,3.685,3.6868,3.6879,3.6839,3.6833,3.6796,3.6821,3.6907,3.6774,3.6773,3.6798,3.6981,3.7012,3.7028,3.6878,3.688,3.6882,3.6982,0,3.7008,3.7045,3.6999,3.7047,3.7057,3.6991,3.7013,3.6997,3.6971,3.6977,3.6949,3.6957,3.6904,3.69,3.6921,3.6892,3.6943,3.6885,3.6894,3.6895,3.6898,3.7045,3.7077,3.7172,3.6994,3.6996,3.6998,0,3.713,3.7123,3.7172,3.7138,3.7141,3.7161,3.7152,3.7159,3.714,3.712,3.7115,3.7071,3.7094,3.7036,3.7066,3.7028,3.703,3.7016,3.7019,3.7015,3.695,3.7043,3.7202,3.7215,3.7017,3.7016,3.7014,0,3.7247,3.7251,3.728,3.7274,3.7235,3.7251,3.7236,3.7214,3.7214,3.7208,3.7207,3.7205,3.7202,3.7202,3.7159,3.7121,3.7195,3.7133,3.7178,3.7179,3.7194,3.7193,3.7353,3.72,3.72,3.72,3.7199,0,3.7364,3.7396,3.7332,3.735,3.7385,3.7332,3.7368,3.7347,3.7328,3.7341,3.7286,3.73,3.7243,3.7252,3.7219,3.7249,3.7249,3.7233,3.7224,3.7236,3.7238,3.7234,3.7226,3.7203,3.7203,3.7202,3.7201,0,3.7499,3.7458,3.7485,3.7447,3.7438,3.7465,3.7433,3.7449,3.7421,3.7438,3.7439,3.7395,3.7402,3.736,3.736,3.7338,3.7384,3.7364,3.7389,3.7382,3.7429,3.7424,3.759,3.7608,3.7446,3.7448,3.7449,0,3.7574,3.7597,3.7562,3.7566,3.7554,3.7562,3.7562,3.7512,3.7515,3.7496,3.7514,3.7516,3.7515,3.753,3.7498,3.7498,3.7477,3.7535,3.7476,3.7488,3.7475,3.7473,3.7475,3.7546,3.7548,3.755,3.7551,0,3.7711,3.769,3.7691,3.7687,3.7688,3.7682,3.7672,3.7679,3.7626,3.7631,3.7637,3.7637,3.7637,3.764,3.7634,3.7619,3.7577,3.7571,3.758,3.7592,3.7605,3.7597,3.742,3.7566,3.7564,3.7563,3.7563,3.7562,3.7817,3.7834,3.7812,3.7816,3.7803,3.7796,3.7808,3.7782,3.7786,3.7781,3.7753,3.7765,3.7747,3.7734,3.7724,3.7733,3.7705,3.772,3.7723,3.7727,3.7734,3.7607,3.7732,3.7731,3.7731,3.7731,3.773,0,3.7949,3.7932,3.7937,3.7924,3.7928,3.7888,3.7876,3.7881,3.7892,3.7879,3.7879,3.7887,3.789,3.786,3.7859,3.7873,3.7853,3.7874,3.7871,3.7868,3.776,3.775,3.789,3.789,3.789,3.789,3.789,3.789,3.8018,3.8045,3.8022,3.8043,3.8026,3.8036,3.8033,3.8026,3.8015,3.8026,3.8028,3.8008,3.7988,3.7986,3.7988,3.7979,3.7981,3.8008,3.7993,3.7891,3.7876,3.7861,3.7851,3.801,3.801,3.8099,3.81,3.8101]}]]